Home > Weather > Riehen > Past weeks

Flag for Switzerland Past Weather in Riehen, Basel-Stadt, Switzerland — Yesterday and Last 2 Weeks

Now
56 °F

Passing clouds.


Feels Like: 56 °F
Forecast: 50 / 70 °F
Wind: 3 mph from West

Location: Bale-Mulhouse

Current Time: May 31, 2016 at 6:06:47 AM

Latest Report: May 31, 2016 at 5:00 AM


Visibility: 19 mi

Pressure: 29.81 "Hg

Humidity: 80%

Dew Point: 50 °F

Location of RiehenLocation

Past Weather in Riehen — Graph

°F

Riehen Temperature Yesterday

Maximum temperature yesterday: 64 °F (at 4:00 PM)
Minimum temperature yesterday: 58 °F (at 5:00 AM)
Average temperature yesterday: 61 °F

High & Low Weather Summary for the Past Weeks

 TemperatureHumidityPressure
High80 °F (May 27, 5:00 PM)98% (May 26, 6:00 AM)30.23 "Hg (May 26, 6:00 AM)
Low41 °F (May 16, 5:00 AM)38% (May 18, 3:00 PM)29.70 "Hg (May 29, 12:00 PM)
Average59 °F75%29.96 "Hg
* Reported May 16 4:00 AM — May 31 4:00 AM, Riehen, Weather by CustomWeather, © 2016

Note: Actual official high and low records may vary slightly from our data, if they occured in-between our weather recording intervals... More about our weather records

Advertising

Riehen Weather History for the Previous 24 Hours

Scroll right to see more
 ConditionsComfort  
Time TempWeatherWind HumidityBarometerVisibility
4:00 AM
Tue, May 31
56 °FOvercast.2 mph87%29.80 "Hg37 mi
3:00 AM56 °FOvercast.2 mph82%29.80 "Hg37 mi
2:00 AM59 °FOvercast.3 mph71%29.80 "Hg37 mi
1:00 AM58 °FOvercast.3 mph73%29.80 "Hg37 mi
12:00 AM59 °FOvercast.5 mph72%29.81 "Hg37 mi
11:00 PM
Mon, May 30
59 °FOvercast.6 mph72%29.81 "Hg19 mi
10:00 PM60 °FOvercast.7 mph74%29.80 "Hg19 mi
9:00 PM60 °FOvercast.7 mph75%29.79 "Hg19 mi
8:00 PM61 °FOvercast.9 mph76%29.78 "Hg19 mi
7:00 PM63 °FOvercast.15 mph67%29.77 "Hg19 mi
6:00 PM64 °FOvercast.16 mph66%29.76 "Hg19 mi
5:00 PM64 °FOvercast.21 mph66%29.76 "Hg19 mi
4:00 PM64 °FOvercast.14 mph67%29.75 "Hg19 mi
3:00 PM64 °FOvercast.18 mph66%29.75 "Hg16 mi
2:00 PM64 °FOvercast.17 mph68%29.74 "Hg16 mi
11:00 AM63 °FOvercast.16 mph73%29.72 "Hg16 mi
10:00 AM62 °FOvercast.15 mph77%29.72 "Hg16 mi
9:00 AM60 °FOvercast.7 mph80%29.74 "Hg12 mi
8:00 AM58 °FLight rain. Overcast.5 mph85%29.74 "Hg12 mi
7:00 AM58 °FLight rain. Overcast.5 mph84%29.73 "Hg12 mi
6:00 AM59 °FOvercast.5 mph85%29.73 "Hg37 mi
Weather by CustomWeather, © 2016

See weather overviewHow to use our weather pages